"Time","Value","Approval","myLocation"
"2023-05-06 00:00",2.059,"Approved","OW515"
"2023-05-06 01:00",2.057,"Approved","OW515"
"2023-05-06 02:00",2.06,"Approved","OW515"
"2023-05-06 03:00",2.027,"Approved","OW515"
"2023-05-06 04:00",2.02,"Approved","OW515"
"2023-05-06 05:00",2.021,"Approved","OW515"
"2023-05-06 06:00",2.016,"Approved","OW515"
"2023-05-06 07:00",2.016,"Approved","OW515"
"2023-05-06 08:00",2.011,"Approved","OW515"
"2023-05-06 09:00",2.011,"Approved","OW515"
"2023-05-06 10:00",2.005,"Approved","OW515"
"2023-05-06 11:00",2.003,"Approved","OW515"
"2023-05-06 12:00",1.999,"Approved","OW515"
"2023-05-06 13:00",1.995,"Approved","OW515"
"2023-05-06 14:00",1.995,"Approved","OW515"
"2023-05-06 15:00",1.996,"Approved","OW515"
"2023-05-06 16:00",1.999,"Approved","OW515"
"2023-05-06 17:00",1.992,"Approved","OW515"
"2023-05-06 18:00",1.991,"Approved","OW515"
"2023-05-06 19:00",1.987,"Approved","OW515"
"2023-05-06 20:00",1.984,"Approved","OW515"
"2023-05-06 21:00",1.983,"Approved","OW515"
"2023-05-06 22:00",1.979,"Approved","OW515"
"2023-05-06 23:00",1.978,"Approved","OW515"
"2023-05-07 00:00",1.972,"Approved","OW515"
"2023-05-07 01:00",1.973,"Approved","OW515"
"2023-05-07 02:00",1.966,"Approved","OW515"
"2023-05-07 03:00",1.964,"Approved","OW515"
"2023-05-07 04:00",1.962,"Approved","OW515"
"2023-05-07 05:00",1.957,"Approved","OW515"
"2023-05-07 06:00",1.959,"Approved","OW515"
"2023-05-07 07:00",1.962,"Approved","OW515"
"2023-05-07 08:00",1.962,"Approved","OW515"
"2023-05-07 09:00",1.959,"Approved","OW515"
"2023-05-07 10:00",1.958,"Approved","OW515"
"2023-05-07 11:00",1.953,"Approved","OW515"
"2023-05-07 12:00",1.949,"Approved","OW515"
"2023-05-07 13:00",1.944,"Approved","OW515"
"2023-05-07 14:00",1.944,"Approved","OW515"
"2023-05-07 15:00",1.943,"Approved","OW515"
"2023-05-07 16:00",1.942,"Approved","OW515"
"2023-05-07 17:00",1.94,"Approved","OW515"
"2023-05-07 18:00",1.936,"Approved","OW515"
"2023-05-07 19:00",1.937,"Approved","OW515"
"2023-05-07 20:00",1.94,"Approved","OW515"
"2023-05-07 21:00",1.94,"Approved","OW515"
"2023-05-07 22:00",1.935,"Approved","OW515"
"2023-05-07 23:00",1.933,"Approved","OW515"
"2023-05-08 00:00",1.928,"Approved","OW515"
"2023-05-08 01:00",1.926,"Approved","OW515"
"2023-05-08 02:00",1.925,"Approved","OW515"
"2023-05-08 03:00",1.92,"Approved","OW515"
"2023-05-08 04:00",1.92,"Approved","OW515"
"2023-05-08 05:00",1.916,"Approved","OW515"
"2023-05-08 06:00",1.911,"Approved","OW515"
"2023-05-08 07:00",1.911,"Approved","OW515"
"2023-05-08 08:00",1.906,"Approved","OW515"
"2023-05-08 09:00",1.908,"Approved","OW515"
"2023-05-08 10:00",1.909,"Approved","OW515"
"2023-05-08 11:00",1.908,"Approved","OW515"
"2023-05-08 12:00",1.912,"Approved","OW515"
"2023-05-08 13:00",1.905,"Approved","OW515"
"2023-05-08 14:00",1.905,"Approved","OW515"
"2023-05-08 15:00",1.902,"Approved","OW515"
"2023-05-08 16:00",1.9,"Approved","OW515"
"2023-05-08 17:00",1.896,"Approved","OW515"
"2023-05-08 18:00",1.891,"Approved","OW515"
"2023-05-08 19:00",1.892,"Approved","OW515"
"2023-05-08 20:00",1.886,"Approved","OW515"
"2023-05-08 21:00",1.885,"Approved","OW515"
"2023-05-08 22:00",1.888,"Approved","OW515"
"2023-05-08 23:00",1.889,"Approved","OW515"
"2023-05-09 00:00",1.889,"Approved","OW515"
"2023-05-09 01:00",1.887,"Approved","OW515"
"2023-05-09 02:00",1.885,"Approved","OW515"
"2023-05-09 03:00",1.881,"Approved","OW515"
"2023-05-09 04:00",1.879,"Approved","OW515"
"2023-05-09 05:00",1.88,"Approved","OW515"
"2023-05-09 06:00",1.874,"Approved","OW515"
"2023-05-09 07:00",1.874,"Approved","OW515"
"2023-05-09 08:00",1.866,"Approved","OW515"
"2023-05-09 09:00",1.865,"Approved","OW515"
"2023-05-09 10:00",1.868,"Approved","OW515"
"2023-05-09 11:00",1.868,"Approved","OW515"
"2023-05-09 12:00",1.881,"Approved","OW515"
"2023-05-09 13:00",1.895,"Approved","OW515"
"2023-05-09 14:00",1.899,"Approved","OW515"
"2023-05-09 15:00",1.9,"Approved","OW515"
"2023-05-09 16:00",1.898,"Approved","OW515"
"2023-05-09 17:00",1.868,"Approved","OW515"
"2023-05-09 18:00",1.861,"Approved","OW515"
"2023-05-09 19:00",1.859,"Approved","OW515"
"2023-05-09 20:00",1.858,"Approved","OW515"
"2023-05-09 21:00",1.855,"Approved","OW515"
"2023-05-09 22:00",1.855,"Approved","OW515"
"2023-05-09 23:00",1.85,"Approved","OW515"
"2023-05-10 00:00",1.846,"Approved","OW515"
"2023-05-10 01:00",1.847,"Approved","OW515"
"2023-05-10 02:00",1.845,"Approved","OW515"
"2023-05-10 03:00",1.84,"Approved","OW515"
"2023-05-10 04:00",1.841,"Approved","OW515"
"2023-05-10 05:00",1.84,"Approved","OW515"
"2023-05-10 06:00",1.842,"Approved","OW515"
"2023-05-10 07:00",1.842,"Approved","OW515"
"2023-05-10 08:00",1.839,"Approved","OW515"
"2023-05-10 09:00",1.837,"Approved","OW515"
"2023-05-10 10:00",1.838,"Approved","OW515"
"2023-05-10 11:00",1.834,"Approved","OW515"
"2023-05-10 12:00",1.83,"Approved","OW515"
"2023-05-10 13:00",1.825,"Approved","OW515"
"2023-05-10 14:00",1.826,"Approved","OW515"
"2023-05-10 15:00",1.824,"Approved","OW515"
"2023-05-10 16:00",1.828,"Approved","OW515"
"2023-05-10 17:00",1.829,"Approved","OW515"
"2023-05-10 18:00",1.829,"Approved","OW515"
"2023-05-10 19:00",1.831,"Approved","OW515"
"2023-05-10 20:00",1.828,"Approved","OW515"
"2023-05-10 21:00",1.829,"Approved","OW515"
"2023-05-10 22:00",1.824,"Approved","OW515"
"2023-05-10 23:00",1.822,"Approved","OW515"
"2023-05-11 00:00",1.815,"Approved","OW515"
"2023-05-11 01:00",1.814,"Approved","OW515"
"2023-05-11 02:00",1.812,"Approved","OW515"
"2023-05-11 03:00",1.81,"Approved","OW515"
"2023-05-11 04:00",1.808,"Approved","OW515"
"2023-05-11 05:00",1.81,"Approved","OW515"
"2023-05-11 06:00",1.812,"Approved","OW515"
"2023-05-11 07:00",1.811,"Approved","OW515"
"2023-05-11 08:00",1.813,"Approved","OW515"
"2023-05-11 09:00",1.807,"Approved","OW515"
"2023-05-11 10:00",1.805,"Approved","OW515"
"2023-05-11 11:00",1.802,"Approved","OW515"
"2023-05-11 12:00",1.799,"Approved","OW515"
"2023-05-11 13:00",1.797,"Approved","OW515"
"2023-05-11 14:00",1.795,"Approved","OW515"
"2023-05-11 15:00",1.793,"Approved","OW515"
"2023-05-11 16:00",1.795,"Approved","OW515"
"2023-05-11 17:00",1.799,"Approved","OW515"
"2023-05-11 18:00",1.799,"Approved","OW515"
"2023-05-11 19:00",1.802,"Approved","OW515"
"2023-05-11 20:00",1.804,"Approved","OW515"
"2023-05-11 21:00",1.796,"Approved","OW515"
"2023-05-11 22:00",1.797,"Approved","OW515"
"2023-05-11 23:00",1.793,"Approved","OW515"
"2023-05-12 00:00",1.789,"Approved","OW515"
"2023-05-12 01:00",1.785,"Approved","OW515"
"2023-05-12 02:00",1.784,"Approved","OW515"
"2023-05-12 03:00",1.781,"Approved","OW515"
"2023-05-12 04:00",1.785,"Approved","OW515"
"2023-05-12 05:00",1.782,"Approved","OW515"
"2023-05-12 06:00",1.78,"Approved","OW515"
"2023-05-12 07:00",1.78,"Approved","OW515"
"2023-05-12 08:00",1.781,"Approved","OW515"
"2023-05-12 09:00",1.784,"Approved","OW515"
"2023-05-12 10:00",1.785,"Approved","OW515"
"2023-05-12 11:00",1.783,"Approved","OW515"
"2023-05-12 12:00",1.782,"Approved","OW515"
"2023-05-12 13:00",1.782,"Approved","OW515"
"2023-05-12 14:00",1.777,"Approved","OW515"
"2023-05-12 15:00",1.774,"Approved","OW515"
"2023-05-12 16:00",1.772,"Approved","OW515"
"2023-05-12 17:00",1.772,"Approved","OW515"
"2023-05-12 18:00",1.801,"Approved","OW515"
"2023-05-12 19:00",1.805,"Approved","OW515"
"2023-05-12 20:00",1.807,"Approved","OW515"
"2023-05-12 21:00",1.805,"Approved","OW515"
"2023-05-12 22:00",1.807,"Approved","OW515"
"2023-05-12 23:00",1.805,"Approved","OW515"
"2023-05-13 00:00",1.78,"Approved","OW515"
"2023-05-13 01:00",1.772,"Approved","OW515"
"2023-05-13 02:00",1.768,"Approved","OW515"
"2023-05-13 03:00",1.764,"Approved","OW515"
"2023-05-13 04:00",1.759,"Approved","OW515"
"2023-05-13 05:00",1.763,"Approved","OW515"
"2023-05-13 06:00",1.755,"Approved","OW515"
"2023-05-13 07:00",1.752,"Approved","OW515"
"2023-05-13 08:00",1.753,"Approved","OW515"
"2023-05-13 09:00",1.755,"Approved","OW515"
"2023-05-13 10:00",1.757,"Approved","OW515"
"2023-05-13 11:00",1.758,"Approved","OW515"
"2023-05-13 12:00",1.762,"Approved","OW515"
"2023-05-13 13:00",1.758,"Approved","OW515"
"2023-05-13 14:00",1.756,"Approved","OW515"
"2023-05-13 15:00",1.75,"Approved","OW515"
"2023-05-13 16:00",1.746,"Approved","OW515"
"2023-05-13 17:00",1.745,"Approved","OW515"
"2023-05-13 18:00",1.746,"Approved","OW515"
"2023-05-13 19:00",1.75,"Approved","OW515"
"2023-05-13 20:00",1.75,"Approved","OW515"
"2023-05-13 21:00",1.749,"Approved","OW515"
"2023-05-13 22:00",1.751,"Approved","OW515"
"2023-05-13 23:00",1.745,"Approved","OW515"
"2023-05-14 00:00",1.743,"Approved","OW515"
"2023-05-14 01:00",1.741,"Approved","OW515"
"2023-05-14 02:00",1.741,"Approved","OW515"
"2023-05-14 03:00",1.738,"Approved","OW515"
"2023-05-14 04:00",1.737,"Approved","OW515"
"2023-05-14 05:00",1.731,"Approved","OW515"
"2023-05-14 06:00",1.73,"Approved","OW515"
"2023-05-14 07:00",1.726,"Approved","OW515"
"2023-05-14 08:00",1.727,"Approved","OW515"
"2023-05-14 09:00",1.729,"Approved","OW515"
"2023-05-14 10:00",1.731,"Approved","OW515"
"2023-05-14 11:00",1.731,"Approved","OW515"
"2023-05-14 12:00",1.731,"Approved","OW515"
"2023-05-14 13:00",1.731,"Approved","OW515"
"2023-05-14 14:00",1.73,"Approved","OW515"
"2023-05-14 15:00",1.722,"Approved","OW515"
"2023-05-14 16:00",1.719,"Approved","OW515"
"2023-05-14 17:00",1.717,"Approved","OW515"
"2023-05-14 18:00",1.716,"Approved","OW515"
"2023-05-14 19:00",1.722,"Approved","OW515"
"2023-05-14 20:00",1.72,"Approved","OW515"
"2023-05-14 21:00",1.723,"Approved","OW515"
"2023-05-14 22:00",1.721,"Approved","OW515"
"2023-05-14 23:00",1.724,"Approved","OW515"
"2023-05-15 00:00",1.725,"Approved","OW515"
"2023-05-15 01:00",1.717,"Approved","OW515"
"2023-05-15 02:00",1.714,"Approved","OW515"
"2023-05-15 03:00",1.71,"Approved","OW515"
"2023-05-15 04:00",1.709,"Approved","OW515"
"2023-05-15 05:00",1.711,"Approved","OW515"
"2023-05-15 06:00",1.704,"Approved","OW515"
"2023-05-15 07:00",1.711,"Approved","OW515"
"2023-05-15 08:00",1.705,"Approved","OW515"
"2023-05-15 09:00",1.712,"Approved","OW515"
"2023-05-15 10:00",1.714,"Approved","OW515"
"2023-05-15 11:00",1.712,"Approved","OW515"
"2023-05-15 12:00",1.705,"Approved","OW515"
"2023-05-15 13:00",1.709,"Approved","OW515"
"2023-05-15 14:00",1.701,"Approved","OW515"
"2023-05-15 15:00",1.7,"Approved","OW515"
"2023-05-15 16:00",1.692,"Approved","OW515"
"2023-05-15 17:00",1.723,"Approved","OW515"
"2023-05-15 18:00",1.731,"Approved","OW515"
"2023-05-15 19:00",1.731,"Approved","OW515"
"2023-05-15 20:00",1.739,"Approved","OW515"
"2023-05-15 21:00",1.736,"Approved","OW515"
"2023-05-15 22:00",1.735,"Approved","OW515"
"2023-05-15 23:00",1.734,"Approved","OW515"
"2023-05-16 00:00",1.734,"Approved","OW515"
"2023-05-16 01:00",1.735,"Approved","OW515"
"2023-05-16 02:00",1.734,"Approved","OW515"
"2023-05-16 03:00",1.701,"Approved","OW515"
"2023-05-16 04:00",1.697,"Approved","OW515"
"2023-05-16 05:00",1.695,"Approved","OW515"
"2023-05-16 06:00",1.692,"Approved","OW515"
"2023-05-16 07:00",1.689,"Approved","OW515"
"2023-05-16 08:00",1.684,"Approved","OW515"
"2023-05-16 09:00",1.686,"Approved","OW515"
"2023-05-16 10:00",1.687,"Approved","OW515"
"2023-05-16 11:00",1.688,"Approved","OW515"
"2023-05-16 12:00",1.693,"Approved","OW515"
"2023-05-16 13:00",1.69,"Approved","OW515"
"2023-05-16 14:00",1.685,"Approved","OW515"
"2023-05-16 15:00",1.682,"Approved","OW515"
"2023-05-16 16:00",1.68,"Approved","OW515"
"2023-05-16 17:00",1.678,"Approved","OW515"
"2023-05-16 18:00",1.678,"Approved","OW515"
"2023-05-16 19:00",1.68,"Approved","OW515"
"2023-05-16 20:00",1.679,"Approved","OW515"
"2023-05-16 21:00",1.678,"Approved","OW515"
"2023-05-16 22:00",1.68,"Approved","OW515"
"2023-05-16 23:00",1.681,"Approved","OW515"
"2023-05-17 00:00",1.679,"Approved","OW515"
"2023-05-17 01:00",1.678,"Approved","OW515"
"2023-05-17 02:00",1.673,"Approved","OW515"
"2023-05-17 03:00",1.67,"Approved","OW515"
"2023-05-17 04:00",1.67,"Approved","OW515"
"2023-05-17 05:00",1.668,"Approved","OW515"
"2023-05-17 06:00",1.665,"Approved","OW515"
"2023-05-17 07:00",1.668,"Approved","OW515"
"2023-05-17 08:00",1.668,"Approved","OW515"
"2023-05-17 09:00",1.668,"Approved","OW515"
"2023-05-17 10:00",1.671,"Approved","OW515"
"2023-05-17 11:00",1.673,"Approved","OW515"
"2023-05-17 12:00",1.669,"Approved","OW515"
"2023-05-17 13:00",1.666,"Approved","OW515"
"2023-05-17 14:00",1.664,"Approved","OW515"
"2023-05-17 15:00",1.662,"Approved","OW515"
"2023-05-17 16:00",1.66,"Approved","OW515"
"2023-05-17 17:00",1.659,"Approved","OW515"
"2023-05-17 18:00",1.664,"Approved","OW515"
"2023-05-17 19:00",1.661,"Approved","OW515"
"2023-05-17 20:00",1.664,"Approved","OW515"
"2023-05-17 21:00",1.668,"Approved","OW515"
"2023-05-17 22:00",1.669,"Approved","OW515"
"2023-05-17 23:00",1.667,"Approved","OW515"
"2023-05-18 00:00",1.664,"Approved","OW515"
"2023-05-18 01:00",1.666,"Approved","OW515"
"2023-05-18 02:00",1.664,"Approved","OW515"
"2023-05-18 03:00",1.664,"Approved","OW515"
"2023-05-18 04:00",1.652,"Approved","OW515"
"2023-05-18 05:00",1.654,"Approved","OW515"
"2023-05-18 06:00",1.649,"Approved","OW515"
"2023-05-18 07:00",1.649,"Approved","OW515"
"2023-05-18 08:00",1.649,"Approved","OW515"
"2023-05-18 09:00",1.654,"Approved","OW515"
"2023-05-18 10:00",1.654,"Approved","OW515"
"2023-05-18 11:00",1.653,"Approved","OW515"
"2023-05-18 12:00",1.653,"Approved","OW515"
"2023-05-18 13:00",1.654,"Approved","OW515"
"2023-05-18 14:00",1.65,"Approved","OW515"
"2023-05-18 15:00",1.644,"Approved","OW515"
"2023-05-18 16:00",1.646,"Approved","OW515"
"2023-05-18 17:00",1.643,"Approved","OW515"
"2023-05-18 18:00",1.667,"Approved","OW515"
"2023-05-18 19:00",1.676,"Approved","OW515"
"2023-05-18 20:00",1.679,"Approved","OW515"
"2023-05-18 21:00",1.679,"Approved","OW515"
"2023-05-18 22:00",1.678,"Approved","OW515"
"2023-05-18 23:00",1.677,"Approved","OW515"
"2023-05-19 00:00",1.642,"Approved","OW515"
"2023-05-19 01:00",1.64,"Approved","OW515"
"2023-05-19 02:00",1.635,"Approved","OW515"
"2023-05-19 03:00",1.635,"Approved","OW515"
"2023-05-19 04:00",1.633,"Approved","OW515"
"2023-05-19 05:00",1.631,"Approved","OW515"
"2023-05-19 06:00",1.631,"Approved","OW515"
"2023-05-19 07:00",1.627,"Approved","OW515"
"2023-05-19 08:00",1.631,"Approved","OW515"
"2023-05-19 09:00",1.631,"Approved","OW515"
"2023-05-19 10:00",1.632,"Approved","OW515"
"2023-05-19 11:00",1.629,"Approved","OW515"
"2023-05-19 12:00",1.63,"Approved","OW515"
"2023-05-19 13:00",1.629,"Approved","OW515"
"2023-05-19 14:00",1.625,"Approved","OW515"
"2023-05-19 15:00",1.622,"Approved","OW515"
"2023-05-19 16:00",1.619,"Approved","OW515"
"2023-05-19 17:00",1.621,"Approved","OW515"
"2023-05-19 18:00",1.623,"Approved","OW515"
"2023-05-19 19:00",1.621,"Approved","OW515"
"2023-05-19 20:00",1.627,"Approved","OW515"
"2023-05-19 21:00",1.624,"Approved","OW515"
"2023-05-19 22:00",1.624,"Approved","OW515"
"2023-05-19 23:00",1.631,"Approved","OW515"
"2023-05-20 00:00",1.631,"Approved","OW515"
"2023-05-20 01:00",1.627,"Approved","OW515"
"2023-05-20 02:00",1.622,"Approved","OW515"
"2023-05-20 03:00",1.622,"Approved","OW515"
"2023-05-20 04:00",1.621,"Approved","OW515"
"2023-05-20 05:00",1.619,"Approved","OW515"
"2023-05-20 06:00",1.616,"Approved","OW515"
"2023-05-20 07:00",1.618,"Approved","OW515"
"2023-05-20 08:00",1.615,"Approved","OW515"
"2023-05-20 09:00",1.624,"Approved","OW515"
"2023-05-20 10:00",1.621,"Approved","OW515"
"2023-05-20 11:00",1.622,"Approved","OW515"
"2023-05-20 12:00",1.622,"Approved","OW515"
"2023-05-20 13:00",1.618,"Approved","OW515"
"2023-05-20 14:00",1.619,"Approved","OW515"
"2023-05-20 15:00",1.617,"Approved","OW515"
"2023-05-20 16:00",1.612,"Approved","OW515"
"2023-05-20 17:00",1.607,"Approved","OW515"
"2023-05-20 18:00",1.609,"Approved","OW515"
"2023-05-20 19:00",1.614,"Approved","OW515"
"2023-05-20 20:00",1.616,"Approved","OW515"
"2023-05-20 21:00",1.623,"Approved","OW515"
"2023-05-20 22:00",1.621,"Approved","OW515"
"2023-05-20 23:00",1.616,"Approved","OW515"
"2023-05-21 00:00",1.612,"Approved","OW515"
"2023-05-21 01:00",1.609,"Approved","OW515"
"2023-05-21 02:00",1.607,"Approved","OW515"
"2023-05-21 03:00",1.606,"Approved","OW515"
"2023-05-21 04:00",1.605,"Approved","OW515"
"2023-05-21 05:00",1.604,"Approved","OW515"
"2023-05-21 06:00",1.608,"Approved","OW515"
"2023-05-21 07:00",1.603,"Approved","OW515"
"2023-05-21 08:00",1.605,"Approved","OW515"
"2023-05-21 09:00",1.608,"Approved","OW515"
"2023-05-21 10:00",1.605,"Approved","OW515"
"2023-05-21 11:00",1.61,"Approved","OW515"
"2023-05-21 12:00",1.605,"Approved","OW515"
"2023-05-21 13:00",1.602,"Approved","OW515"
"2023-05-21 14:00",1.599,"Approved","OW515"
"2023-05-21 15:00",1.603,"Approved","OW515"
"2023-05-21 16:00",1.6,"Approved","OW515"
"2023-05-21 17:00",1.597,"Approved","OW515"
"2023-05-21 18:00",1.595,"Approved","OW515"
"2023-05-21 19:00",1.624,"Approved","OW515"
"2023-05-21 20:00",1.627,"Approved","OW515"
"2023-05-21 21:00",1.635,"Approved","OW515"
"2023-05-21 22:00",1.632,"Approved","OW515"
"2023-05-21 23:00",1.635,"Approved","OW515"
"2023-05-22 00:00",1.603,"Approved","OW515"
"2023-05-22 01:00",1.6,"Approved","OW515"
"2023-05-22 02:00",1.6,"Approved","OW515"
"2023-05-22 03:00",1.595,"Approved","OW515"
"2023-05-22 04:00",1.598,"Approved","OW515"
"2023-05-22 05:00",1.593,"Approved","OW515"
"2023-05-22 06:00",1.589,"Approved","OW515"
"2023-05-22 07:00",1.591,"Approved","OW515"
"2023-05-22 08:00",1.593,"Approved","OW515"
"2023-05-22 09:00",1.591,"Approved","OW515"
"2023-05-22 10:00",1.594,"Approved","OW515"
"2023-05-22 11:00",1.594,"Approved","OW515"
"2023-05-22 12:00",1.597,"Approved","OW515"
"2023-05-22 13:00",1.594,"Approved","OW515"
"2023-05-22 14:00",1.593,"Approved","OW515"
"2023-05-22 15:00",1.589,"Approved","OW515"
"2023-05-22 16:00",1.587,"Approved","OW515"
"2023-05-22 17:00",1.586,"Approved","OW515"
"2023-05-22 18:00",1.586,"Approved","OW515"
"2023-05-22 19:00",1.587,"Approved","OW515"
"2023-05-22 20:00",1.588,"Approved","OW515"
"2023-05-22 21:00",1.587,"Approved","OW515"
"2023-05-22 22:00",1.59,"Approved","OW515"
"2023-05-22 23:00",1.591,"Approved","OW515"
"2023-05-23 00:00",1.589,"Approved","OW515"
"2023-05-23 01:00",1.589,"Approved","OW515"
"2023-05-23 02:00",1.586,"Approved","OW515"
"2023-05-23 03:00",1.585,"Approved","OW515"
"2023-05-23 04:00",1.588,"Approved","OW515"
"2023-05-23 05:00",1.585,"Approved","OW515"
"2023-05-23 06:00",1.584,"Approved","OW515"
"2023-05-23 07:00",1.58,"Approved","OW515"
"2023-05-23 08:00",1.579,"Approved","OW515"
"2023-05-23 09:00",1.579,"Approved","OW515"
"2023-05-23 10:00",1.585,"Approved","OW515"
"2023-05-23 11:00",1.585,"Approved","OW515"
"2023-05-23 12:00",1.585,"Approved","OW515"
"2023-05-23 13:00",1.588,"Approved","OW515"
"2023-05-23 14:00",1.585,"Approved","OW515"
"2023-05-23 15:00",1.582,"Approved","OW515"
"2023-05-23 16:00",1.579,"Approved","OW515"
"2023-05-23 17:00",1.578,"Approved","OW515"
"2023-05-23 18:00",1.576,"Approved","OW515"
"2023-05-23 19:00",1.574,"Approved","OW515"
"2023-05-23 20:00",1.573,"Approved","OW515"
"2023-05-23 21:00",1.574,"Approved","OW515"
"2023-05-23 22:00",1.576,"Approved","OW515"
"2023-05-23 23:00",1.578,"Approved","OW515"
"2023-05-24 00:00",1.578,"Approved","OW515"
"2023-05-24 01:00",1.579,"Approved","OW515"
"2023-05-24 02:00",1.576,"Approved","OW515"
"2023-05-24 03:00",1.575,"Approved","OW515"
"2023-05-24 04:00",1.576,"Approved","OW515"
"2023-05-24 05:00",1.569,"Approved","OW515"
"2023-05-24 06:00",1.567,"Approved","OW515"
"2023-05-24 07:00",1.57,"Approved","OW515"
"2023-05-24 08:00",1.565,"Approved","OW515"
"2023-05-24 09:00",1.566,"Approved","OW515"
"2023-05-24 10:00",1.564,"Approved","OW515"
"2023-05-24 11:00",1.572,"Approved","OW515"
"2023-05-24 12:00",1.575,"Approved","OW515"
"2023-05-24 13:00",1.577,"Approved","OW515"
"2023-05-24 14:00",1.572,"Approved","OW515"
"2023-05-24 15:00",1.569,"Approved","OW515"
"2023-05-24 16:00",1.57,"Approved","OW515"
"2023-05-24 17:00",1.565,"Approved","OW515"
"2023-05-24 18:00",1.567,"Approved","OW515"
"2023-05-24 19:00",1.569,"Approved","OW515"
"2023-05-24 20:00",1.565,"Approved","OW515"
"2023-05-24 21:00",1.565,"Approved","OW515"
"2023-05-24 22:00",1.571,"Approved","OW515"
"2023-05-24 23:00",1.599,"Approved","OW515"
"2023-05-25 00:00",1.604,"Approved","OW515"
"2023-05-25 01:00",1.611,"Approved","OW515"
"2023-05-25 02:00",1.608,"Approved","OW515"
"2023-05-25 03:00",1.582,"Approved","OW515"
"2023-05-25 04:00",1.576,"Approved","OW515"
"2023-05-25 05:00",1.572,"Approved","OW515"
"2023-05-25 06:00",1.569,"Approved","OW515"
"2023-05-25 07:00",1.571,"Approved","OW515"
"2023-05-25 08:00",1.568,"Approved","OW515"
"2023-05-25 09:00",1.568,"Approved","OW515"
"2023-05-25 10:00",1.565,"Approved","OW515"
"2023-05-25 11:00",1.563,"Approved","OW515"
"2023-05-25 12:00",1.564,"Approved","OW515"
"2023-05-25 13:00",1.569,"Approved","OW515"
"2023-05-25 14:00",1.568,"Approved","OW515"
"2023-05-25 15:00",1.568,"Approved","OW515"
"2023-05-25 16:00",1.568,"Approved","OW515"
"2023-05-25 17:00",1.569,"Approved","OW515"
"2023-05-25 18:00",1.563,"Approved","OW515"
"2023-05-25 19:00",1.565,"Approved","OW515"
"2023-05-25 20:00",1.564,"Approved","OW515"
"2023-05-25 21:00",1.56,"Approved","OW515"
"2023-05-25 22:00",1.568,"Approved","OW515"
"2023-05-25 23:00",1.565,"Approved","OW515"
"2023-05-26 00:00",1.572,"Approved","OW515"
"2023-05-26 01:00",1.571,"Approved","OW515"
"2023-05-26 02:00",1.571,"Approved","OW515"
"2023-05-26 03:00",1.571,"Approved","OW515"
"2023-05-26 04:00",1.568,"Approved","OW515"
"2023-05-26 05:00",1.564,"Approved","OW515"
"2023-05-26 06:00",1.563,"Approved","OW515"
"2023-05-26 07:00",1.566,"Approved","OW515"
"2023-05-26 08:00",1.562,"Approved","OW515"
"2023-05-26 09:00",1.563,"Approved","OW515"
"2023-05-26 10:00",1.566,"Approved","OW515"
"2023-05-26 11:00",1.564,"Approved","OW515"
"2023-05-26 12:00",1.571,"Approved","OW515"
"2023-05-26 13:00",1.568,"Approved","OW515"
"2023-05-26 14:00",1.567,"Approved","OW515"
"2023-05-26 15:00",1.566,"Approved","OW515"
"2023-05-26 16:00",1.561,"Approved","OW515"
"2023-05-26 17:00",1.56,"Approved","OW515"
"2023-05-26 18:00",1.561,"Approved","OW515"
"2023-05-26 19:00",1.567,"Approved","OW515"
"2023-05-26 20:00",1.566,"Approved","OW515"
"2023-05-26 21:00",1.568,"Approved","OW515"
"2023-05-26 22:00",1.57,"Approved","OW515"
"2023-05-26 23:00",1.571,"Approved","OW515"
"2023-05-27 00:00",1.57,"Approved","OW515"
"2023-05-27 01:00",1.568,"Approved","OW515"
"2023-05-27 02:00",1.566,"Approved","OW515"
"2023-05-27 03:00",1.569,"Approved","OW515"
"2023-05-27 04:00",1.565,"Approved","OW515"
"2023-05-27 05:00",1.566,"Approved","OW515"
"2023-05-27 06:00",1.564,"Approved","OW515"
"2023-05-27 07:00",1.563,"Approved","OW515"
"2023-05-27 08:00",1.566,"Approved","OW515"
"2023-05-27 09:00",1.566,"Approved","OW515"
"2023-05-27 10:00",1.571,"Approved","OW515"
"2023-05-27 11:00",1.571,"Approved","OW515"
"2023-05-27 12:00",1.572,"Approved","OW515"
"2023-05-27 13:00",1.567,"Approved","OW515"
"2023-05-27 14:00",1.567,"Approved","OW515"
"2023-05-27 15:00",1.57,"Approved","OW515"
"2023-05-27 16:00",1.563,"Approved","OW515"
"2023-05-27 17:00",1.565,"Approved","OW515"
"2023-05-27 18:00",1.597,"Approved","OW515"
"2023-05-27 19:00",1.603,"Approved","OW515"
"2023-05-27 20:00",1.61,"Approved","OW515"
"2023-05-27 21:00",1.605,"Approved","OW515"
"2023-05-27 22:00",1.61,"Approved","OW515"
"2023-05-27 23:00",1.611,"Approved","OW515"
"2023-05-28 00:00",1.61,"Approved","OW515"
"2023-05-28 01:00",1.604,"Approved","OW515"
"2023-05-28 02:00",1.581,"Approved","OW515"
"2023-05-28 03:00",1.574,"Approved","OW515"
"2023-05-28 04:00",1.574,"Approved","OW515"